Airfield :
LOGIN :

Register | Disclaimer

   EN    FR    IT 

 










Legend :    VFR   Marginal VFR   IFR   Intensive IFR   Very Intensive IFR
Visi :
Ceiling :
>= 8 km
>= 3000ft
5 to 8 km
1000 to 3000 ft
1500m to 5 km
500 to 1000 ft
800 to 1500m
200 to 500 ft
< 800m
< 200 ft
Symbols :   Thunderstorms  Fog  Heavy snow  Heavy precipitations  Wind > 20 kt
SIGMETs :     Misc.  Thunderstorms  Icing  Turbulence  Mountain Waves  Volcanic Ashes






- Airport Elevation : 24 ft
- IATA code : SGD


EKSB - Sonderborg

CURRENT METAR :
  • 280450Z AUTO 20008KT 170V240 9999NDV ///////// 10/09 Q0999

EXPIRED METARs :
  • 280420Z AUTO 20010KT 160V240 9999NDV -SHRA ///////// 10/09 Q0998
  • 280350Z AUTO 20011KT 160V230 9999NDV -RA ///////// 10/09 Q0998
  • 280320Z AUTO 20011G21KT 150V230 9999NDV -RA ///////// 10/09 Q0998
  • 280250Z AUTO 18010KT 160V220 6000NDV RA ///////// 09/08 Q0998
  • 280220Z AUTO 19008KT 150V230 9999NDV -RA ///////// 09/08 Q0998

Expired Forecast.



MET'MAP, your aeronautical weather chart ! - Copyright ORBIFLY December 2007 - Disclaimer

ORBIFLY MET'MAP TEAM :

Programming & Development : Alexandra Zaïnal
Concept & original design : Baudouin d'Aumeries
Assistance for programming : Marc-Olivier Méhu
Technical & hardware support : Manuel Goepfert

Contact : metmap@orbifly.com




SOURCES & CREDITS :

   NOAA